Terminal Aerodrome Forecast
Issued by NWS

Home | Current Version | Previous Version | Text Only | Print | Product List | Glossary On
Versions: 1 2 3 4 5 6 7 8 9 10 11 12 13
000
FTUS42 KTAE 010500
TAFVLD
TAF
KVLD 010523Z 0106/0206 VRB04KT P6SM FEW250
     FM012000 VRB05KT P6SM VCTS SCT050CB SCT250
     FM020200 VRB01KT P6SM SCT250=

USA.gov is the U.S. government's official web portal to all federal, state and local government web resources and services.